Total_Precipitation_Accumulation
0.00 0.00 0.00 0.00 0.00 0.00 0.00 0.00 0.00 0.00 0.00 0.00 0.00 0.00 0.00 0.00 0.00 0.00 0.00 0.00 0.00 0.00 0.00 0.00 0.00 0.00 0.00 0.01 0.01 0.03 0.05 0.04 0.03 0.04 0.05 0.05 0.05 0.05 0.07 0.09 0.10 0.11 0.10
0.00 0.00 0.00 0.00 0.00 0.00 0.00 0.00 0.00 0.00 0.00 0.00 0.00 0.00 0.00 0.00 0.00 0.00 0.00 0.00 0.00 0.00 0.00 0.00 0.00 0.00 0.00 0.00 0.01 0.01 0.02 0.02 0.03 0.03 0.04 0.05 0.07 0.07 0.07 0.08 0.10 0.11 0.10
0.00 0.00 0.00 0.00 0.00 0.00 0.00 0.00 0.00 0.00 0.00 0.00 0.00 0.00 0.00 0.00 0.00 0.00 0.00 0.00 0.00 0.00 0.00 0.00 0.00 0.00 0.00 0.00 0.00 0.01 0.01 0.01 0.02 0.03 0.04 0.05 0.07 0.08 0.08 0.09 0.09 0.10 0.10
0.00 0.00 0.00 0.00 0.00 0.00 0.00 0.00 0.00 0.00 0.00 0.00 0.00 0.00 0.00 0.00 0.00 0.00 0.00 0.00 0.00 0.00 0.00 0.00 0.00 0.00 0.00 0.00 0.00 0.01 0.01 0.01 0.01 0.02 0.04 0.06 0.06 0.06 0.07 0.07 0.07 0.08 0.10
0.00 0.00 0.00 0.00 0.00 0.00 0.00 0.00 0.00 0.00 0.00 0.00 0.00 0.00 0.00 0.00 0.00 0.00 0.00 0.00 0.00 0.00 0.00 0.00 0.00 0.00 0.00 0.00 0.00 0.00 0.01 0.01 0.02 0.02 0.03 0.06 0.06 0.05 0.06 0.07 0.07 0.09 0.10
0.00 0.00 0.00 0.00 0.00 0.00 0.00 0.00 0.00 0.00 0.00 0.00 0.00 0.00 0.00 0.00 0.00 0.00 0.00 0.00 0.00 0.00 0.00 0.00 0.00 0.00 0.00 0.00 0.00 0.00 0.01 0.02 0.02 0.02 0.03 0.03 0.04 0.06 0.06 0.05 0.07 0.10 0.10
0.00 0.00 0.00 0.00 0.01 0.01 0.01 0.01 0.00 0.00 0.00 0.00 0.00 0.00 0.00 0.00 0.00 0.00 0.00 0.00 0.00 0.00 0.00 0.00 0.00 0.00 0.00 0.00 0.00 0.01 0.02 0.02 0.03 0.03 0.03 0.03 0.05 0.05 0.04 0.03 0.05 0.06 0.08
0.01 0.02 0.04 0.06 0.06 0.05 0.04 0.03 0.02 0.01 0.00 0.00 0.00 0.00 0.00 0.00 0.00 0.00 0.00 0.00 0.00 0.00 0.00 0.00 0.00 0.00 0.00 0.00 0.00 0.01 0.02 0.02 0.03 0.06 0.06 0.04 0.03 0.04 0.04 0.02 0.02 0.03 0.04
0.07 0.09 0.09 0.08 0.07 0.05 0.03 0.02 0.01 0.00 0.00 0.00 0.00 0.00 0.00 0.00 0.00 0.00 0.00 0.00 0.00 0.00 0.00 0.00 0.00 0.00 0.00 0.00 0.00 0.01 0.01 0.01 0.01 0.02 0.03 0.03 0.03 0.03 0.04 0.03 0.03 0.03 0.04
0.07 0.05 0.04 0.03 0.02 0.01 0.00 0.00 0.00 0.00 0.00 0.00 0.00 0.00 0.00 0.00 0.00 0.00 0.00 0.00 0.00 0.00 0.00 0.00 0.00 0.00 0.00 0.00 0.00 0.00 0.00 0.00 0.00 0.00 0.00 0.00 0.01 0.01 0.02 0.03 0.04 0.05 0.06
0.01 0.01 0.00 0.00 0.00 0.00 0.00 0.00 0.00 0.00 0.00 0.00 0.00 0.00 0.00 0.00 0.00 0.02 0.00 0.00 0.00 0.00 0.00 0.00 0.00 0.00 0.00 0.00 0.00 0.00 0.00 0.00 0.00 0.00 0.00 0.00 0.00 0.02 0.03 0.04 0.04 0.05 0.07
0.00 0.00 0.00 0.00 0.00 0.00 0.00 0.00 0.00 0.00 0.00 0.00 0.00 0.00 0.00 0.01 0.01 0.03 0.02 0.00 0.00 0.00 0.00 0.00 0.00 0.00 0.00 0.00 0.01 0.01 0.01 0.00 0.00 0.00 0.00 0.01 0.03 0.04 0.05 0.05 0.07 0.10 0.12
0.00 0.00 0.00 0.00 0.00 0.00 0.00 0.00 0.00 0.00 0.00 0.00 0.00 0.00 0.01 0.01 0.01 0.03 0.03 0.01 0.01 0.00 0.00 0.00 0.00 0.01 0.01 0.03 0.06 0.04 0.02 0.01 0.01 0.01 0.02 0.06 0.09 0.13 0.12 0.13 0.13 0.13 0.12
0.00 0.00 0.00 0.00 0.00 0.00 0.00 0.00 0.00 0.00 0.00 0.01 0.01 0.02 0.02 0.02 0.02 0.04 0.05 0.07 0.05 0.03 0.03 0.03 0.02 0.04 0.07 0.09 0.10 0.04 0.06 0.03 0.03 0.05 0.08 0.15 0.19 0.27 0.26 0.20 0.15 0.16 0.15
0.00 0.00 0.00 0.00 0.00 0.00 0.00 0.01 0.01 0.01 0.02 0.02 0.02 0.03 0.03 0.03 0.04 0.06 0.08 0.12 0.13 0.08 0.05 0.04 0.06 0.08 0.12 0.12 0.09 0.09 0.10 0.06 0.11 0.20 0.23 0.27 0.32 0.41 0.43 0.35 0.26 0.20 0.16
0.00 0.00 0.00 0.00 0.00 0.01 0.01 0.02 0.03 0.03 0.03 0.03 0.03 0.03 0.03 0.03 0.03 0.05 0.06 0.09 0.12 0.12 0.10 0.06 0.06 0.11 0.13 0.12 0.10 0.08 0.06 0.09 0.22 0.48 0.63 0.56 0.52 0.64 0.71 0.57 0.41 0.30 0.23
0.00 0.00 0.00 0.01 0.02 0.02 0.03 0.04 0.04 0.03 0.03 0.03 0.03 0.03 0.03 0.04 0.05 0.06 0.08 0.10 0.12 0.14 0.14 0.09 0.08 0.12 0.15 0.14 0.13 0.10 0.09 0.15 0.29 0.69 1.03 1.26 1.03 0.93 0.97 0.81 0.61 0.42 0.30
0.01 0.01 0.01 0.02 0.03 0.03 0.03 0.04 0.04 0.04 0.04 0.04 0.05 0.06 0.06 0.07 0.07 0.08 0.11 0.12 0.13 0.17 0.22 0.20 0.18 0.24 0.26 0.23 0.23 0.19 0.14 0.14 0.22 0.62 1.09 1.47 1.46 1.24 1.23 1.06 0.84 0.58 0.38
0.01 0.02 0.03 0.04 0.04 0.03 0.03 0.04 0.05 0.05 0.05 0.06 0.07 0.08 0.09 0.11 0.12 0.13 0.17 0.20 0.21 0.23 0.29 0.30 0.28 0.34 0.39 0.38 0.35 0.26 0.18 0.14 0.14 0.45 0.95 1.31 1.48 1.45 1.44 1.30 1.06 0.77 0.47
0.03 0.04 0.04 0.04 0.03 0.03 0.04 0.05 0.04 0.04 0.05 0.07 0.10 0.13 0.15 0.18 0.19 0.20 0.22 0.22 0.23 0.26 0.29 0.33 0.35 0.41 0.45 0.43 0.33 0.28 0.21 0.16 0.17 0.33 0.75 1.22 1.42 1.32 1.25 1.22 1.08 0.85 0.57
0.04 0.04 0.03 0.03 0.03 0.03 0.03 0.03 0.03 0.04 0.07 0.09 0.10 0.11 0.14 0.18 0.19 0.20 0.20 0.19 0.22 0.27 0.28 0.34 0.38 0.40 0.38 0.36 0.28 0.20 0.15 0.13 0.17 0.27 0.44 0.80 1.11 1.09 0.89 0.82 0.75 0.59 0.43
0.03 0.03 0.03 0.02 0.02 0.02 0.03 0.05 0.05 0.06 0.10 0.11 0.11 0.09 0.08 0.10 0.12 0.14 0.19 0.19 0.20 0.29 0.43 0.50 0.42 0.34 0.25 0.19 0.14 0.10 0.11 0.12 0.13 0.16 0.21 0.38 0.57 0.72 0.63 0.48 0.38 0.25 0.16
0.03 0.02 0.01 0.01 0.01 0.02 0.03 0.04 0.05 0.07 0.10 0.11 0.11 0.08 0.05 0.04 0.07 0.08 0.13 0.16 0.20 0.26 0.35 0.51 0.48 0.29 0.24 0.16 0.12 0.11 0.15 0.20 0.19 0.12 0.14 0.25 0.34 0.40 0.34 0.24 0.15 0.07 0.03
0.02 0.01 0.01 0.00 0.01 0.01 0.02 0.02 0.03 0.05 0.07 0.10 0.09 0.06 0.05 0.04 0.07 0.14 0.13 0.12 0.15 0.19 0.25 0.33 0.49 0.35 0.22 0.21 0.18 0.16 0.20 0.23 0.20 0.11 0.10 0.17 0.23 0.23 0.14 0.09 0.05 0.02 0.01
0.02 0.01 0.00 0.00 0.01 0.01 0.01 0.01 0.02 0.02 0.04 0.07 0.06 0.05 0.04 0.04 0.11 0.20 0.21 0.20 0.22 0.27 0.34 0.50 0.59 0.55 0.44 0.39 0.31 0.24 0.21 0.15 0.12 0.10 0.10 0.12 0.13 0.10 0.07 0.05 0.02 0.01 0.00
0.02 0.01 0.00 0.00 0.00 0.00 0.00 0.00 0.01 0.02 0.03 0.03 0.03 0.03 0.05 0.08 0.14 0.23 0.28 0.26 0.24 0.30 0.29 0.40 0.54 0.58 0.50 0.52 0.50 0.34 0.20 0.09 0.08 0.10 0.09 0.07 0.06 0.04 0.03 0.03 0.02 0.02 0.01